| time (UTC) | temp F | wind direction | speed knots | gust knots | rain 1hr in | rain 24hr in | rain mn in | humidity % | barometer mb |
| 20260502231919 | 58 | 315 | 0.0 | 4.3 | 0.00 | 0.00 | 0.00 | 67 | 1018.6 |
| 20260502230701 | 59 | 315 | 0.0 | 4.3 | 0.00 | 0.00 | 0.00 | 66 | 1018.6 |
| 20260502225443 | 60 | 315 | 0.0 | 4.3 | 0.00 | 0.00 | 0.00 | 64 | 1018.4 |
| 20260502224225 | 60 | 315 | 2.6 | 4.3 | 0.00 | 0.00 | 0.00 | 63 | 1018.4 |
| 20260502223007 | 61 | 315 | 0.9 | 4.3 | 0.00 | 0.00 | 0.00 | 62 | 1018.3 |
| 20260502221749 | 61 | 270 | 0.0 | 2.6 | 0.00 | 0.00 | 0.00 | 61 | 1018.2 |
| 20260502220531 | 61 | 315 | 0.0 | 2.6 | 0.00 | 0.00 | 0.00 | 60 | 1018.2 |
| 20260502215313 | 61 | 45 | 0.9 | 12.2 | 0.00 | 0.00 | 0.00 | 59 | 1018.1 |
| 20260502214055 | 62 | 315 | 0.0 | 12.2 | 0.00 | 0.00 | 0.00 | 58 | 1018.0 |
| 20260502212837 | 62 | 270 | 0.0 | 12.2 | 0.00 | 0.00 | 0.00 | 56 | 1017.9 |
| 20260502211620 | 62 | 270 | 0.0 | 12.2 | 0.00 | 0.00 | 0.00 | 57 | 1017.9 |
| 20260502210402 | 62 | 112 | 0.0 | 12.2 | 0.00 | 0.00 | 0.00 | 58 | 1018.0 |
| 20260502205144 | 62 | 315 | 0.0 | 12.2 | 0.00 | 0.00 | 0.00 | 58 | 1018.0 |
| 20260502203926 | 61 | 315 | 0.0 | 12.2 | 0.00 | 0.00 | 0.00 | 57 | 1018.0 |
| 20260502202708 | 62 | 315 | 0.0 | 12.2 | 0.00 | 0.00 | 0.00 | 56 | 1017.9 |
| 20260502201450 | 62 | 315 | 0.0 | 12.2 | 0.00 | 0.00 | 0.00 | 55 | 1017.9 |
| 20260502200232 | 64 | 315 | 0.9 | 12.2 | 0.00 | 0.00 | 0.00 | 54 | 1017.8 |
| 20260502195009 | 64 | 315 | 0.0 | 12.2 | 0.00 | 0.00 | 0.00 | 53 | 1017.7 |
| 20260502193751 | 65 | 315 | 0.0 | 12.2 | 0.00 | 0.00 | 0.00 | 50 | 1017.5 |
| 20260502192533 | 65 | 225 | 0.0 | 12.2 | 0.00 | 0.01 | 0.00 | 51 | 1017.4 |
| 20260502191315 | 65 | 135 | 0.0 | 12.2 | 0.00 | 0.01 | 0.00 | 52 | 1017.4 |
| 20260502190057 | 65 | 90 | 0.0 | 12.2 | 0.00 | 0.01 | 0.00 | 53 | 1017.3 |
| 20260502184839 | 65 | 90 | 0.0 | 12.2 | 0.00 | 0.01 | 0.00 | 50 | 1017.2 |
| 20260502183621 | 67 | 90 | 0.0 | 12.2 | 0.00 | 0.01 | 0.00 | 48 | 1016.9 |
| 20260502182404 | 69 | 90 | 0.0 | 12.2 | 0.00 | 0.01 | 0.00 | 47 | 1016.6 |
| 20260502181146 | 70 | 90 | 0.0 | 12.2 | 0.00 | 0.01 | 0.00 | 45 | 1016.6 |
| 20260502162007 | 83 | 180 | 5.2 | 12.2 | 0.00 | 0.01 | 0.00 | 25 | 1015.6 |
| 20260502160745 | 84 | 292 | 1.7 | 12.2 | 0.00 | 0.01 | 0.00 | 25 | 1015.7 |
| 20260502151819 | 86 | 270 | 0.0 | 12.2 | 0.00 | 0.01 | 0.00 | 24 | 1015.9 |
| 20260502150558 | 84 | 135 | 0.9 | 12.2 | 0.00 | 0.01 | 0.00 | 25 | 1016.1 |
| 20260502130223 | 82 | 225 | 4.3 | 12.2 | 0.00 | 0.01 | 0.00 | 29 | 1018.3 |
| 20260502123740 | 82 | 180 | 5.2 | 12.2 | 0.00 | 0.01 | 0.00 | 32 | 1018.6 |
| 20260502122518 | 83 | 90 | 2.6 | 12.2 | 0.00 | 0.02 | 0.00 | 30 | 1018.7 |
| 20260502121257 | 81 | 180 | 0.0 | 12.2 | 0.00 | 0.02 | 0.00 | 30 | 1019.0 |
| 20260502114814 | 81 | 225 | 1.7 | 12.2 | 0.00 | 0.02 | 0.00 | 30 | 1019.4 |
| 20260502113552 | 81 | 135 | 2.6 | 12.2 | 0.00 | 0.02 | 0.00 | 31 | 1019.7 |
| 20260502112331 | 80 | 270 | 7.8 | 12.2 | 0.00 | 0.02 | 0.00 | 30 | 1020.0 |
| 20260502111110 | 78 | 90 | 7.0 | 12.2 | 0.00 | 0.02 | 0.00 | 32 | 1020.4 |
| 20260502105848 | 79 | 292 | 0.0 | 11.3 | 0.00 | 0.02 | 0.00 | 33 | 1020.5 |
| 20260502104627 | 78 | 135 | 4.3 | 11.3 | 0.00 | 0.02 | 0.00 | 32 | 1020.9 |
| 20260502103405 | 78 | 315 | 4.3 | 9.6 | 0.00 | 0.02 | 0.00 | 32 | 1021.0 |
| 20260502102144 | 77 | 135 | 0.9 | 9.6 | 0.00 | 0.02 | 0.00 | 33 | 1021.3 |
| 20260502100922 | 77 | 270 | 2.6 | 9.6 | 0.00 | 0.02 | 0.00 | 33 | 1021.5 |
| 20260502090812 | 72 | 0 | 4.3 | 9.6 | 0.00 | 0.02 | 0.00 | 36 | 1022.7 |